Terminal Aerodrome Forecast
Issued by NWS

Home | Current Version | Previous Version | Graphics & Text | Print | Product List | Glossary On
Versions: 1 2 3 4 5 6 7 8 9 10 11 12 13 14 15 16 17 18 19 20 21 22 23 24 25 26 27 28
944
FTUS43 KLOT 231136
TAFMDW
TAF
KMDW 231136Z 2312/2412 29005KT P6SM SKC
     FM231500 33011G17KT P6SM FEW040
     FM232100 03010KT P6SM BKN050
     FM240400 35003KT P6SM SCT050=

USA.gov is the U.S. government's official web portal to all federal, state and local government web resources and services.